Hourly Weather Luhove

Today, 7 May, Friday

Time Temperature Precipitation Wind Pressure Humidity
00:00 +6°C° 0 mm 2 mps 732 mmHg 81%
01:00 +6°C° 0 mm 2 mps 732 mmHg 82%
02:00 +6°C° 0 mm 2 mps 732 mmHg 84%
03:00 +6°C° 0 mm 2 mps 732 mmHg 83%
04:00 +6°C° 0 mm 2 mps 732 mmHg 83%
05:00 +6°C° 0 mm 2 mps 731 mmHg 82%
06:00 +8°C° 0 mm 3 mps 731 mmHg 77%
07:00 +8°C° 0 mm 5 mps 731 mmHg 72%
08:00 +10°C° 0 mm 6 mps 731 mmHg 67%
09:00 +11°C° 0 mm 6 mps 730 mmHg 65%
10:00 +14°C° 0 mm 7 mps 730 mmHg 64%
11:00 +15°C° 0 mm 8 mps 729 mmHg 62%
12:00 +14°C° 0.3 mm 7 mps 729 mmHg 67%
13:00 +14°C° 0.3 mm 6 mps 729 mmHg 73%
14:00 +13°C° 0.3 mm 5 mps 729 mmHg 78%
15:00 +13°C° 0.4 mm 5 mps 728 mmHg 82%
16:00 +12°C° 0.4 mm 5 mps 728 mmHg 86%
17:00 +12°C° 0.4 mm 4 mps 727 mmHg 90%
18:00 +11°C° 0.1 mm 4 mps 728 mmHg 91%
19:00 +11°C° 0.1 mm 3 mps 728 mmHg 92%
20:00 +10°C° 0.1 mm 2 mps 728 mmHg 92%
21:00 +10°C° 0.1 mm 3 mps 728 mmHg 91%
22:00 +10°C° 0.1 mm 3 mps 728 mmHg 90%
23:00 +10°C° 0.1 mm 3 mps 728 mmHg 89%

Tomorrow, 8 May, Saturday

Time Temperature Precipitation Wind Pressure Humidity
00:00 +8°C° 0.1 mm 4 mps 728 mmHg 90%
01:00 +8°C° 0.1 mm 5 mps 729 mmHg 90%
02:00 +8°C° 0.1 mm 6 mps 729 mmHg 90%
03:00 +7°C° 0.1 mm 6 mps 730 mmHg 89%
04:00 +5°C° 0.1 mm 7 mps 731 mmHg 88%
05:00 +2°C° 0.1 mm 8 mps 731 mmHg 87%
06:00 +4°C° 0 mm 8 mps 732 mmHg 82%
07:00 +4°C° 0 mm 8 mps 732 mmHg 77%
08:00 +5°C° 0 mm 9 mps 733 mmHg 72%
09:00 +6°C° 0 mm 9 mps 733 mmHg 66%
10:00 +7°C° 0 mm 9 mps 734 mmHg 59%
11:00 +7°C° 0 mm 10 mps 734 mmHg 53%
12:00 +8°C° 0 mm 9 mps 735 mmHg 53%
13:00 +8°C° 0 mm 9 mps 735 mmHg 52%
14:00 +8°C° 0 mm 9 mps 735 mmHg 52%
15:00 +9°C° 0 mm 8 mps 735 mmHg 53%
16:00 +9°C° 0 mm 7 mps 736 mmHg 55%
17:00 +8°C° 0 mm 7 mps 736 mmHg 56%
18:00 +7°C° 0 mm 6 mps 736 mmHg 62%
19:00 +5°C° 0 mm 5 mps 737 mmHg 67%
20:00 +4°C° 0 mm 4 mps 738 mmHg 73%
21:00 +3°C° 0 mm 4 mps 738 mmHg 76%
22:00 +2°C° 0 mm 3 mps 738 mmHg 80%
23:00 +2°C° 0 mm 2 mps 739 mmHg 84%

Day after tomorrow, 9 May, Sunday

Time Temperature Precipitation Wind Pressure Humidity
00:00 +2°C° 0 mm 2 mps 739 mmHg 85%
01:00 +2°C° 0 mm 2 mps 739 mmHg 87%
02:00 +2°C° 0 mm 2 mps 739 mmHg 88%
03:00 +2°C° 0 mm 2 mps 740 mmHg 89%
04:00 +1°C° 0 mm 2 mps 740 mmHg 90%
05:00 +1°C° 0 mm 2 mps 740 mmHg 91%
06:00 +4°C° 0 mm 2 mps 741 mmHg 83%
07:00 +6°C° 0 mm 2 mps 741 mmHg 75%
08:00 +8°C° 0 mm 2 mps 742 mmHg 67%
09:00 +9°C° 0 mm 2 mps 742 mmHg 59%
10:00 +12°C° 0 mm 2 mps 742 mmHg 52%
11:00 +13°C° 0 mm 2 mps 742 mmHg 44%
12:00 +14°C° 0 mm 2 mps 742 mmHg 42%
13:00 +14°C° 0 mm 2 mps 742 mmHg 40%
14:00 +15°C° 0 mm 1 mps 742 mmHg 38%
15:00 +15°C° 0 mm 1 mps 741 mmHg 38%
16:00 +15°C° 0 mm 1 mps 741 mmHg 39%
17:00 +15°C° 0 mm 1 mps 741 mmHg 39%
18:00 +13°C° 0 mm 1 mps 741 mmHg 45%
19:00 +10°C° 0 mm 2 mps 742 mmHg 51%
20:00 +9°C° 0 mm 2 mps 742 mmHg 57%
21:00 +8°C° 0 mm 2 mps 742 mmHg 60%
22:00 +7°C° 0 mm 3 mps 742 mmHg 62%
23:00 +7°C° 0 mm 3 mps 742 mmHg 64%

10 May, Monday

Time Temperature Precipitation Wind Pressure Humidity
00:00 +5°C° 0 mm 3 mps 742 mmHg 64%
01:00 +5°C° 0 mm 3 mps 742 mmHg 65%
02:00 +5°C° 0 mm 3 mps 742 mmHg 66%
03:00 +5°C° 0 mm 3 mps 742 mmHg 66%
04:00 +4°C° 0 mm 3 mps 742 mmHg 66%
05:00 +4°C° 0 mm 3 mps 742 mmHg 66%
06:00 +6°C° 0 mm 4 mps 742 mmHg 62%
07:00 +8°C° 0 mm 5 mps 742 mmHg 59%
08:00 +10°C° 0 mm 5 mps 742 mmHg 55%
09:00 +13°C° 0 mm 6 mps 742 mmHg 52%
10:00 +14°C° 0 mm 6 mps 743 mmHg 49%
11:00 +15°C° 0 mm 6 mps 743 mmHg 45%
12:00 +16°C° 0 mm 6 mps 742 mmHg 45%
13:00 +16°C° 0 mm 6 mps 742 mmHg 44%
14:00 +17°C° 0 mm 6 mps 742 mmHg 43%
15:00 +17°C° 0 mm 5 mps 741 mmHg 46%
16:00 +17°C° 0 mm 5 mps 741 mmHg 49%
17:00 +17°C° 0 mm 4 mps 741 mmHg 52%
18:00 +14°C° 0 mm 4 mps 741 mmHg 59%
19:00 +12°C° 0 mm 4 mps 741 mmHg 65%
20:00 +10°C° 0 mm 4 mps 741 mmHg 72%
21:00 +10°C° 0 mm 4 mps 741 mmHg 74%
22:00 +8°C° 0 mm 4 mps 741 mmHg 76%
23:00 +7°C° 0 mm 4 mps 741 mmHg 78%

11 May, Tuesday

Time Temperature Precipitation Wind Pressure Humidity
00:00 +7°C° 0 mm 4 mps 741 mmHg 78%
01:00 +6°C° 0 mm 4 mps 741 mmHg 77%
02:00 +6°C° 0 mm 4 mps 741 mmHg 77%
03:00 +5°C° 0 mm 3 mps 741 mmHg 77%
04:00 +5°C° 0 mm 3 mps 741 mmHg 78%
05:00 +4°C° 0 mm 3 mps 741 mmHg 78%
06:00 +6°C° 0 mm 4 mps 741 mmHg 72%
07:00 +8°C° 0 mm 4 mps 741 mmHg 66%
08:00 +10°C° 0 mm 5 mps 741 mmHg 61%
09:00 +13°C° 0 mm 5 mps 740 mmHg 56%
10:00 +14°C° 0 mm 4 mps 740 mmHg 51%
11:00 +17°C° 0 mm 4 mps 740 mmHg 47%
12:00 +18°C° 0 mm 4 mps 739 mmHg 48%
13:00 +19°C° 0 mm 4 mps 739 mmHg 50%
14:00 +19°C° 0 mm 4 mps 739 mmHg 51%
15:00 +20°C° 0 mm 4 mps 738 mmHg 54%
16:00 +20°C° 0 mm 4 mps 738 mmHg 56%
17:00 +20°C° 0 mm 4 mps 738 mmHg 59%
18:00 +18°C° 0 mm 4 mps 738 mmHg 67%
19:00 +15°C° 0 mm 4 mps 737 mmHg 76%
20:00 +13°C° 0 mm 3 mps 737 mmHg 84%
21:00 +12°C° 0 mm 3 mps 737 mmHg 87%
22:00 +12°C° 0 mm 3 mps 737 mmHg 89%
23:00 +11°C° 0 mm 3 mps 737 mmHg 92%

12 May, Wednesday

Time Temperature Precipitation Wind Pressure Humidity
00:00 +11°C° 0 mm 3 mps 736 mmHg 93%
01:00 +10°C° 0 mm 3 mps 736 mmHg 94%
02:00 +10°C° 0 mm 3 mps 736 mmHg 96%
03:00 +10°C° 0 mm 3 mps 735 mmHg 96%
04:00 +9°C° 0 mm 3 mps 735 mmHg 96%
05:00 +9°C° 0 mm 3 mps 735 mmHg 97%
06:00 +11°C° 0 mm 3 mps 735 mmHg 89%
07:00 +12°C° 0 mm 4 mps 735 mmHg 82%
08:00 +13°C° 0 mm 4 mps 735 mmHg 74%
09:00 +14°C° 0 mm 5 mps 734 mmHg 68%
10:00 +15°C° 0 mm 5 mps 734 mmHg 62%
11:00 +16°C° 0 mm 5 mps 733 mmHg 56%
12:00 +16°C° 0 mm 5 mps 733 mmHg 59%
13:00 +15°C° 0 mm 6 mps 733 mmHg 61%
14:00 +15°C° 0 mm 6 mps 733 mmHg 64%
15:00 +13°C° 0 mm 6 mps 733 mmHg 68%
16:00 +12°C° 0 mm 5 mps 733 mmHg 73%
17:00 +9°C° 0 mm 5 mps 732 mmHg 77%
18:00 +10°C° 0 mm 5 mps 732 mmHg 78%
19:00 +10°C° 0 mm 5 mps 732 mmHg 78%
20:00 +10°C° 0 mm 5 mps 731 mmHg 79%
21:00 +9°C° 0.1 mm 5 mps 731 mmHg 80%
22:00 +9°C° 0.1 mm 5 mps 731 mmHg 81%
23:00 +9°C° 0.1 mm 5 mps 731 mmHg 82%
Show more

We Need Your Consent

Meteoprog and our Service Providers may store and access personal data such as cookies, device identifiers or other similar technologies on your device and process such data to personalise content and ads, as well as provide social media features and to analyse the traffic.

  • Store and/or access information on your device

    Cookies, device identifiers or other information can be stored or accessed on your device for the purposes indicated above.

  • Personalised ads and content, ad and content measurement, audience insights, and products development

    Ads and content can be personalised based on a profile. More data can be added to better personalise ads and content. Ad and content performance can be measured. Insights about the audience who saw the ads and content can be derived. Such data can be used to develop or improve user’s experience, systems and software.

By clicking ‘I Agree’ you will allow the use of indicated cookies, device identifiers, web beacons or other similar technologies. Your settings can be changed in the browser on your device.

For certain purposes, legitimate interests may be relied on, rather than consent. You can read more about this in our Privacy and Cookie Policy.